Temperature
23 22 22 22 25 25 25 28 30 30 30 29 29 29 27 26 25 23 24 23 22 21 22 21 21 20 20 20 19 19 19 19 19 19 19 18 18 18 18 18 18 18 18 18 18 18 18 18 18
22 22 24 26 27 25 27 29 30 30 29 29 29 28 27 25 24 24 23 23 22 21 21 21 21 20 20 19 19 19 19 19 19 19 19 18 18 18 18 18 18 18 18 18 18 18 18 18 18
23 23 26 28 27 27 29 30 30 30 29 29 29 28 26 24 24 24 23 23 22 20 21 21 20 20 20 19 19 19 19 19 19 19 19 19 18 18 18 18 18 18 18 18 18 18 18 18 18
23 26 27 29 29 31 31 31 31 30 29 29 28 27 25 24 24 24 23 23 22 20 20 21 20 20 20 19 19 19 19 19 19 19 18 18 18 18 18 18 18 18 18 18 18 18 18 18 18
24 27 28 29 30 32 32 32 31 30 29 29 28 26 24 23 24 23 23 23 21 20 20 21 20 20 20 19 19 19 19 19 19 19 19 18 18 18 18 18 18 18 18 18 18 18 18 18 18
27 29 29 29 31 32 32 31 31 30 29 28 27 25 24 23 23 23 23 23 22 20 20 21 20 20 19 19 19 19 19 19 19 19 19 18 18 18 18 18 18 18 18 18 18 18 18 18 18
28 29 29 31 32 32 32 31 30 30 29 28 27 25 23 23 23 23 23 23 22 21 20 21 20 20 19 19 19 19 19 19 19 19 18 18 18 18 18 18 18 18 18 18 18 18 18 18 18
29 30 30 31 31 31 31 30 30 29 28 27 26 25 23 23 23 23 23 22 22 21 20 20 20 20 19 19 19 19 19 19 19 19 18 18 18 18 18 18 18 18 18 18 18 18 18 18 18
30 30 30 31 31 31 31 31 29 28 28 27 26 25 23 22 23 23 23 22 21 21 20 20 19 19 19 19 19 19 19 19 18 18 18 18 18 18 18 18 18 18 18 18 18 18 18 18 18
31 30 31 32 32 31 31 30 30 29 28 27 25 23 23 22 23 23 23 22 21 21 20 20 20 19 19 18 19 19 18 18 18 18 18 18 18 18 18 18 18 18 18 18 18 18 18 18 17
32 31 32 32 31 31 31 30 30 29 28 27 25 23 22 22 22 23 23 22 21 21 21 20 20 19 19 19 19 18 18 18 18 18 18 18 18 18 18 17 17 17 17 17 17 17 17 17 17
32 32 32 32 31 31 30 30 29 28 27 26 25 24 23 22 22 22 22 22 21 21 20 20 19 19 19 19 19 19 18 18 18 18 18 18 18 18 17 17 17 17 17 17 17 17 17 17 17
32 32 32 31 31 30 30 30 29 28 26 26 25 23 23 22 22 22 22 21 21 21 20 20 19 19 19 19 19 19 18 18 18 18 18 18 18 17 17 17 17 17 17 17 17 16 17 17 17
32 32 32 31 31 30 30 30 28 27 26 25 25 24 22 22 21 21 21 21 20 20 20 20 19 19 19 19 19 18 18 18 18 18 18 17 17 17 17 17 17 16 16 16 16 16 16 16 17
32 32 31 31 30 30 30 28 27 26 26 25 25 24 23 22 22 21 21 20 20 20 20 19 19 19 19 19 19 18 18 18 18 18 17 17 17 17 17 16 16 16 16 16 16 16 16 17 17
32 31 29 30 31 31 30 27 27 26 25 25 24 23 22 22 22 21 21 20 20 20 19 19 19 19 19 19 18 18 18 18 18 17 17 17 17 16 16 16 16 16 16 16 16 16 16 16 16
30 30 30 30 31 31 30 28 28 26 26 25 24 23 22 21 21 21 20 20 20 19 19 19 18 18 19 18 18 18 18 18 17 17 17 17 16 16 16 16 16 16 16 16 16 15 16 16 16
30 31 31 31 31 31 30 29 28 27 26 25 24 23 22 21 21 21 20 20 19 19 19 19 18 18 18 18 18 18 18 17 17 17 17 16 16 16 16 16 16 16 15 15 15 15 16 16 16
32 31 31 31 32 31 30 30 29 28 27 26 24 23 22 21 21 21 20 19 19 19 19 19 18 18 18 18 18 18 17 17 17 17 16 16 16 16 16 15 15 15 15 15 15 15 15 16 16
32 31 31 31 32 31 30 30 29 28 28 26 25 24 23 22 21 20 20 19 19 19 18 18 18 18 18 18 18 18 17 17 17 17 16 16 16 16 16 15 15 15 15 15 15 15 15 16 16
31 31 31 31 32 32 30 28 28 28 28 26 25 24 23 22 21 20 20 19 19 18 19 18 18 18 18 18 18 17 17 17 17 17 16 16 16 15 15 15 15 15 15 15 15 15 15 16 16
31 32 32 31 30 29 28 27 27 28 27 27 26 25 24 23 22 21 20 19 19 18 18 18 18 18 18 17 17 17 17 17 17 17 16 16 16 15 15 15 15 15 15 15 15 15 15 15 15
32 32 32 30 28 26 26 25 27 28 27 27 27 26 25 23 22 21 20 19 19 18 18 18 18 18 18 17 17 17 17 17 17 17 17 16 16 15 15 15 15 15 14 14 14 15 15 15 15
32 32 31 29 25 23 24 24 26 28 28 28 28 26 25 24 22 21 20 19 19 18 18 18 18 18 18 18 17 17 17 17 17 17 17 16 16 16 15 15 15 15 14 14 14 14 14 14 15
32 30 28 26 25 24 25 25 27 28 29 29 28 26 25 24 23 21 20 19 19 19 18 18 18 18 18 18 18 18 17 17 17 17 17 17 16 16 16 15 15 15 14 14 14 14 14 14 14
31 30 28 26 26 27 26 26 27 29 29 29 28 27 25 24 23 22 21 20 19 19 18 18 18 18 18 18 18 18 18 17 17 17 17 17 17 17 16 16 16 15 15 14 14 14 14 14 14
30 30 31 29 28 27 25 25 25 28 29 29 28 27 26 25 24 23 21 20 19 19 19 18 18 18 18 18 18 18 18 18 17 17 17 17 17 17 17 16 16 15 15 14 14 14 14 14 14
32 31 30 29 27 26 26 24 23 24 27 28 28 28 26 25 24 23 22 21 20 19 19 19 18 18 18 18 18 18 18 18 18 17 17 17 17 17 17 16 16 15 15 15 15 14 14 14 14
30 29 29 29 29 27 26 24 25 25 27 28 29 28 27 26 25 24 23 22 21 20 19 19 18 18 18 18 18 18 18 18 18 18 18 17 17 17 17 16 16 15 15 15 15 15 14 14 14
29 28 28 27 27 28 27 25 27 26 28 29 29 28 27 26 25 24 23 22 22 21 20 19 19 19 18 18 18 18 18 18 18 18 18 18 17 17 17 17 16 16 16 15 15 15 15 14 14
Wind_Speed
11 14 11 8 6 5 6 7 4 9 8 9 6 5 7 10 7 6 8 14 22 22 21 20 19 18 17 16 15 15 15 14 14 13 12 11 11 12 12 12 12 12 12 12 12 12 11 11 10
12 14 11 8 8 7 4 3 7 10 9 6 4 5 9 10 10 9 11 17 23 21 20 20 20 18 17 16 16 15 14 14 13 12 11 11 11 11 11 11 11 11 11 11 11 11 11 10 10
14 17 10 8 11 9 3 5 6 8 6 4 4 6 7 6 9 9 14 19 21 20 20 21 20 18 17 16 15 15 14 13 12 11 11 11 10 10 10 10 10 10 10 10 10 10 10 10 9
9 10 7 9 12 6 4 6 5 4 5 3 4 7 7 7 6 11 16 19 21 20 21 21 20 18 17 16 15 14 13 12 12 11 10 9 9 9 9 9 9 9 9 9 9 9 9 8 7
12 9 11 13 14 4 5 6 5 3 3 3 5 8 8 6 9 14 15 18 20 20 20 20 19 18 16 15 14 13 13 12 11 10 9 9 9 9 9 8 8 8 7 7 7 7 7 7 5
10 10 12 12 7 3 5 6 4 3 3 4 6 7 6 8 10 14 15 16 18 20 20 20 19 18 16 15 14 13 12 11 10 10 9 9 8 8 8 7 7 7 6 6 6 6 5 5 4
12 12 14 13 6 4 5 5 4 4 3 4 5 7 6 10 11 12 14 15 17 20 19 17 18 16 15 15 14 13 12 11 10 9 9 8 7 7 7 7 6 5 5 5 4 4 3 3 2
11 10 14 10 6 6 6 5 4 4 4 4 4 6 9 10 11 12 12 13 14 16 18 16 17 16 15 14 13 13 12 11 10 9 8 7 7 7 7 6 5 4 4 3 2 2 2 2 3
10 10 10 8 7 6 5 3 2 1 1 3 6 9 15 14 13 14 13 12 13 12 13 15 16 15 15 15 14 13 12 11 10 9 8 7 6 7 7 6 7 5 4 3 2 3 3 4 6
7 8 7 7 7 8 7 4 2 3 3 5 10 13 14 14 14 14 14 14 14 12 10 9 12 12 12 13 14 12 11 11 9 8 8 7 5 5 6 9 7 6 5 4 5 5 5 7 6
8 7 7 7 7 7 7 4 2 2 1 5 12 17 16 15 14 14 14 14 13 12 10 9 8 8 9 8 9 8 8 10 8 8 6 3 2 4 6 4 5 5 5 3 5 5 4 2 1
7 7 7 6 5 5 6 6 3 1 3 6 10 15 17 16 14 12 12 13 13 12 11 9 8 8 6 7 6 6 6 6 6 6 4 5 3 3 4 3 2 0 2 2 1 1 1 2 2
9 8 6 5 4 4 5 5 3 3 5 7 8 12 14 14 12 10 8 9 12 11 10 9 9 9 7 5 3 5 5 6 8 7 6 3 3 3 4 3 3 2 3 3 2 2 1 1 1
10 10 8 7 6 5 6 4 0 1 5 6 7 9 12 12 12 11 9 10 11 11 11 10 10 10 7 5 3 3 5 6 8 8 7 6 7 5 2 1 1 3 5 4 2 1 1 1 0
12 12 9 7 8 5 5 4 1 5 7 7 7 8 9 9 10 11 11 11 11 11 11 10 10 10 7 6 5 4 5 7 7 9 8 7 8 4 2 1 2 3 2 1 0 2 2 2 2
15 13 10 8 9 5 4 3 5 9 8 7 8 9 9 9 10 10 11 8 9 10 11 10 10 11 8 6 3 3 4 6 7 9 9 8 6 3 3 3 4 4 2 2 1 2 3 2 2
12 11 9 4 6 5 5 3 8 9 10 9 9 10 11 10 10 10 11 9 9 10 11 9 8 10 9 7 4 4 4 4 7 8 8 6 4 2 3 4 3 5 1 3 4 4 3 3 3
11 12 9 7 3 6 7 3 7 11 9 9 10 11 11 11 11 11 11 11 10 10 10 10 10 9 9 7 4 3 4 4 6 7 7 6 4 3 3 4 2 4 4 4 4 2 1 2 2
12 13 13 9 5 6 8 5 5 10 10 10 10 11 12 12 12 12 13 12 13 11 11 11 11 9 8 6 5 5 5 4 5 6 8 6 4 4 3 4 1 2 5 4 4 3 3 1 1
13 13 13 9 7 8 9 6 3 8 9 10 11 12 13 13 13 14 14 13 14 13 12 11 11 11 9 6 5 4 5 4 5 5 7 7 5 4 3 2 1 3 4 3 2 2 3 2 2
13 13 13 13 12 10 8 6 3 7 9 10 11 11 13 14 15 15 14 15 14 13 14 12 11 11 10 9 6 5 4 2 4 7 5 5 6 4 3 2 2 1 1 3 1 3 3 3 2
13 12 13 15 14 10 9 6 5 8 9 11 12 12 13 13 13 14 14 14 14 14 14 13 12 11 10 9 8 9 7 6 6 6 6 6 6 5 6 4 2 1 2 3 1 4 3 2 3
14 15 15 15 11 10 9 6 4 7 7 9 11 12 12 13 14 15 15 14 14 14 14 14 13 11 11 10 8 8 7 6 5 6 8 7 6 6 6 6 4 2 0 3 4 3 3 3 4
14 15 15 9 4 6 7 6 3 5 5 7 9 11 12 13 14 15 15 14 13 14 13 14 13 12 11 10 9 8 7 6 6 7 8 6 6 6 6 6 5 3 2 4 2 1 0 2 3
12 11 10 8 3 6 7 4 1 7 6 7 9 10 11 12 13 15 15 15 14 14 14 15 15 13 12 12 10 9 7 6 5 6 7 7 6 6 8 6 5 4 3 3 2 2 0 1 1
12 11 9 10 10 8 3 2 2 5 6 8 10 11 12 13 13 15 16 15 15 15 15 15 15 13 13 12 10 9 8 6 6 7 5 6 5 6 9 7 6 5 5 5 4 3 4 3 1
13 12 12 11 14 9 1 2 5 2 5 8 10 11 12 12 13 14 16 16 15 15 14 15 14 13 13 13 10 9 9 8 7 7 6 5 4 6 9 8 7 6 5 4 4 4 3 3 3
12 11 9 8 7 8 2 2 1 5 1 4 9 11 12 12 13 14 15 15 15 14 14 14 14 13 12 12 12 12 10 8 6 6 7 6 6 5 8 8 8 7 7 6 5 5 5 4 4
9 9 8 8 8 9 5 0 4 5 4 4 7 11 11 12 13 13 14 15 15 15 14 13 14 13 12 12 11 10 11 10 8 7 7 6 5 6 7 8 7 7 7 7 7 6 5 6 6
8 8 9 8 8 9 7 1 1 3 1 2 6 10 10 9 11 13 14 14 14 15 15 14 13 14 13 12 11 10 9 10 10 10 8 8 7 7 8 8 8 8 8 8 8 8 7 7 7
Wind_Direction
228 239 236 249 246 247 279 293 5 35 54 50 45 50 73 64 77 107 131 124 119 122 125 123 120 119 119 118 117 116 115 113 112 109 106 103 98 95 93 90 88 87 86 84 83 83 81 78 75
251 249 244 250 258 267 263 331 38 54 60 67 68 70 79 74 88 119 127 126 123 126 132 127 124 122 121 120 119 118 117 116 114 110 106 102 99 96 92 90 89 88 87 86 84 83 81 79 75
258 263 261 253 255 274 326 50 49 70 75 67 80 68 75 87 105 124 129 130 126 127 126 127 128 126 124 123 122 122 120 118 116 112 108 105 101 99 96 93 92 91 88 87 87 86 84 81 76
252 247 245 264 279 301 8 46 43 68 86 70 88 88 81 81 109 130 137 135 126 127 126 130 130 128 127 127 126 124 123 122 120 117 114 110 105 101 98 94 92 92 90 89 91 89 87 85 77
244 260 253 266 278 320 23 37 21 37 73 78 91 103 96 92 124 134 144 133 131 131 128 133 131 130 129 128 128 128 127 125 124 121 118 114 110 105 99 95 93 93 93 92 91 92 91 89 79
256 260 272 278 293 22 45 43 18 40 83 100 101 107 104 122 135 144 146 138 135 130 128 132 132 133 133 133 133 133 131 130 128 125 121 118 114 109 106 98 95 94 94 97 95 94 96 96 87
260 278 280 289 327 38 39 28 14 24 47 72 89 111 117 131 142 149 143 133 132 130 131 139 139 138 138 139 139 139 138 137 135 131 129 130 129 126 122 114 105 100 100 101 102 105 106 109 116
261 283 295 309 344 27 44 32 30 14 74 101 105 123 140 140 151 146 135 124 126 131 137 145 148 147 149 147 146 144 144 144 143 144 148 151 154 153 149 140 128 120 116 119 125 139 160 176 196
265 272 293 338 354 356 18 13 70 75 192 110 97 113 135 151 156 145 133 129 128 130 138 151 147 154 158 154 150 152 153 156 157 162 170 178 186 173 164 141 147 157 158 164 181 197 210 219 218
261 277 319 357 354 345 347 345 306 215 193 127 112 114 133 154 158 154 150 144 140 137 132 135 145 156 156 149 150 160 163 161 175 166 175 190 186 172 144 146 161 173 182 192 204 224 233 235 225
278 301 332 345 357 345 331 326 296 266 209 145 142 144 154 166 168 163 157 154 147 144 132 136 146 138 131 132 153 149 151 155 161 151 149 131 110 110 111 139 163 189 190 193 184 220 243 235 247
275 300 314 320 335 319 317 311 299 336 93 111 140 150 156 170 171 165 162 154 147 144 136 144 134 115 113 126 128 140 144 138 122 110 82 81 65 60 70 64 21 294 139 119 107 195 71 21 351
276 282 284 296 302 320 307 294 316 63 88 115 138 151 160 170 168 159 157 152 145 145 137 132 118 104 99 96 131 126 114 118 114 111 83 67 79 63 64 63 10 352 50 77 51 50 49 340 292
301 304 304 302 301 285 291 297 315 152 132 143 153 158 167 170 166 159 165 157 151 147 132 128 123 115 115 116 102 109 119 116 114 102 85 64 75 57 32 92 37 33 57 52 12 7 248 230 195
293 290 286 276 262 266 292 301 165 175 161 167 166 164 167 164 164 163 169 160 154 145 134 132 133 131 137 140 147 142 140 128 110 106 93 71 77 64 5 69 71 31 47 99 62 322 279 229 221
285 282 275 262 249 233 261 292 185 176 173 175 171 167 169 168 174 171 158 154 150 146 141 147 149 143 144 142 153 132 120 115 117 121 108 88 87 56 1 52 54 346 350 45 73 13 352 359 344
279 275 280 245 238 260 264 264 174 176 179 177 176 174 172 173 177 168 161 161 151 148 148 146 137 142 146 146 140 114 104 106 118 119 114 112 107 79 49 73 38 304 32 46 34 54 12 347 357
301 308 316 319 285 286 289 268 183 179 182 176 177 174 173 180 181 167 165 162 154 157 155 149 144 141 142 141 134 127 126 137 128 117 118 130 128 81 29 106 41 351 57 51 51 19 350 304 322
301 308 315 316 308 295 290 268 207 179 183 179 179 179 180 186 181 167 167 167 163 165 159 156 152 149 148 148 155 152 156 160 138 135 139 145 131 106 12 81 111 53 78 52 35 5 302 220 20
292 304 307 307 298 282 287 281 218 174 185 182 185 185 185 185 179 171 171 171 171 169 162 158 157 160 161 159 162 160 155 173 152 133 143 157 151 163 151 80 141 77 107 80 45 32 336 348 85
292 300 308 308 300 289 285 265 202 184 183 182 188 186 185 183 180 178 178 174 175 171 167 167 163 163 166 161 165 161 150 195 150 138 160 170 163 156 78 94 51 28 128 115 55 16 13 351 353
293 301 305 304 303 309 315 293 204 188 188 188 187 184 182 180 178 175 178 176 178 175 172 164 163 164 164 170 176 173 179 193 172 163 161 168 176 173 154 155 109 355 47 106 95 81 339 325 332
293 304 303 305 315 314 311 301 220 184 181 184 183 182 178 177 176 176 181 182 180 176 173 166 165 167 165 178 181 183 188 192 169 158 151 168 174 184 175 164 159 185 106 97 71 72 8 352 7
285 292 293 299 330 296 272 260 234 161 177 174 169 170 173 177 175 174 178 177 177 177 172 165 166 170 172 183 183 192 203 193 163 159 160 182 174 182 182 174 170 191 180 130 123 93 93 54 28
277 287 296 304 270 255 244 250 192 131 149 146 153 158 164 168 171 170 173 175 176 175 171 167 170 174 179 187 186 190 199 195 179 179 177 196 185 181 177 174 165 191 169 158 162 181 317 43 41
269 270 280 298 302 309 307 299 81 107 119 128 142 150 160 166 168 168 171 173 176 175 173 172 173 177 183 187 189 186 189 196 198 202 199 200 211 178 159 157 166 189 190 191 172 222 204 177 217
262 268 283 287 292 299 296 42 7 357 125 137 145 153 160 164 167 167 168 172 175 176 176 176 174 180 186 188 185 188 193 207 209 180 201 205 190 155 153 160 172 184 195 202 176 229 240 170 208
252 276 290 292 301 302 340 53 246 300 296 152 156 152 158 162 167 166 168 173 175 179 179 177 178 182 186 187 188 193 195 200 203 190 199 211 182 160 155 168 178 186 186 191 207 233 212 203 221
251 249 272 285 290 299 310 69 207 222 210 181 163 149 154 165 169 167 168 171 174 178 178 180 180 183 188 193 194 193 188 194 197 200 202 198 182 167 171 180 186 191 192 192 199 232 228 206 221
283 273 260 264 278 287 297 119 296 329 311 147 130 132 140 159 166 165 167 170 175 178 180 182 185 188 190 193 191 194 191 191 195 200 198 191 190 186 185 191 194 202 202 197 198 217 231 218 218
Height
1503 1502 1502 1504 1501 1500 1501 1484 1472 1473 1475 1480 1482 1484 1488 1493 1500 1511 1508 1509 1511 1515 1520 1524 1528 1531 1533 1536 1538 1540 1542 1543 1544 1546 1547 1548 1549 1549 1550 1551 1552 1552 1553 1554 1554 1555 1556 1556 1557
1502 1503 1505 1501 1497 1504 1495 1479 1475 1476 1480 1483 1485 1487 1490 1496 1501 1505 1508 1511 1513 1517 1521 1525 1528 1532 1535 1537 1539 1541 1543 1544 1546 1547 1548 1549 1550 1551 1552 1553 1553 1554 1555 1555 1556 1557 1557 1558 1559
1502 1503 1503 1493 1493 1494 1486 1475 1475 1477 1481 1484 1486 1489 1494 1499 1502 1506 1510 1513 1516 1519 1522 1525 1529 1533 1536 1538 1541 1542 1544 1546 1547 1548 1549 1550 1551 1552 1553 1554 1555 1556 1556 1557 1558 1558 1559 1560 1560
1504 1502 1498 1490 1486 1475 1472 1472 1474 1477 1481 1485 1487 1493 1497 1502 1504 1508 1511 1514 1517 1520 1523 1527 1530 1534 1537 1539 1542 1543 1545 1547 1548 1549 1551 1552 1553 1554 1554 1555 1556 1557 1558 1559 1559 1560 1561 1561 1562
1504 1499 1494 1490 1479 1470 1468 1472 1475 1478 1482 1485 1488 1495 1499 1503 1505 1508 1512 1515 1517 1521 1524 1528 1531 1534 1537 1540 1543 1544 1546 1548 1549 1550 1552 1553 1554 1555 1556 1557 1557 1558 1559 1560 1560 1561 1562 1562 1563
1501 1494 1493 1488 1474 1468 1469 1474 1477 1479 1483 1486 1489 1496 1501 1503 1506 1509 1512 1515 1519 1521 1524 1528 1532 1535 1538 1541 1543 1545 1547 1548 1550 1551 1552 1554 1555 1556 1557 1558 1558 1559 1560 1560 1561 1562 1562 1563 1564
1499 1491 1487 1478 1472 1471 1472 1475 1478 1480 1484 1487 1490 1496 1501 1504 1507 1510 1513 1516 1520 1522 1525 1529 1533 1536 1539 1541 1544 1546 1548 1549 1551 1552 1553 1555 1556 1557 1557 1558 1559 1559 1560 1561 1561 1562 1563 1564 1565
1494 1490 1484 1476 1474 1475 1474 1477 1480 1483 1486 1489 1491 1495 1501 1504 1507 1511 1514 1517 1521 1524 1526 1529 1533 1537 1539 1542 1544 1546 1548 1550 1551 1553 1554 1555 1556 1557 1558 1559 1559 1560 1560 1561 1561 1562 1563 1564 1565
1491 1490 1487 1478 1476 1475 1474 1478 1480 1484 1487 1489 1491 1495 1500 1504 1507 1511 1514 1517 1521 1524 1527 1531 1535 1537 1541 1542 1545 1547 1549 1550 1552 1553 1555 1556 1557 1558 1558 1559 1559 1560 1560 1560 1561 1562 1562 1563 1564
1486 1487 1481 1475 1474 1475 1475 1478 1480 1482 1485 1489 1493 1498 1501 1504 1507 1510 1514 1517 1521 1524 1528 1531 1535 1538 1542 1544 1545 1547 1549 1551 1552 1554 1555 1556 1558 1559 1559 1559 1559 1559 1559 1560 1561 1561 1562 1563 1564
1481 1479 1476 1475 1475 1477 1477 1478 1479 1481 1484 1488 1492 1497 1501 1505 1507 1509 1513 1517 1520 1524 1528 1531 1536 1539 1542 1544 1546 1548 1550 1551 1553 1554 1556 1557 1558 1559 1559 1559 1559 1559 1559 1560 1560 1561 1561 1562 1563
1479 1477 1476 1476 1476 1477 1477 1478 1478 1482 1486 1489 1492 1496 1500 1504 1505 1508 1511 1515 1520 1525 1528 1530 1533 1537 1540 1543 1546 1549 1551 1552 1553 1555 1556 1557 1558 1558 1558 1558 1559 1559 1560 1560 1560 1561 1561 1562 1563
1476 1474 1474 1475 1475 1476 1478 1477 1479 1483 1488 1489 1492 1496 1499 1502 1505 1508 1510 1514 1518 1523 1527 1530 1533 1536 1540 1543 1546 1549 1551 1552 1553 1554 1555 1557 1557 1557 1557 1558 1558 1559 1559 1559 1560 1560 1560 1561 1562
1475 1474 1473 1474 1474 1475 1476 1476 1480 1484 1487 1490 1492 1494 1498 1501 1504 1507 1508 1513 1517 1521 1525 1529 1533 1536 1540 1543 1546 1548 1550 1552 1553 1554 1555 1556 1556 1556 1557 1557 1558 1558 1558 1558 1559 1560 1560 1561 1561
1475 1474 1474 1474 1473 1473 1475 1478 1480 1483 1485 1488 1490 1493 1496 1499 1502 1505 1508 1511 1516 1521 1524 1528 1532 1536 1539 1543 1546 1548 1551 1552 1553 1553 1554 1555 1555 1555 1556 1557 1557 1557 1558 1558 1559 1559 1559 1560 1561
1474 1475 1480 1473 1470 1469 1475 1483 1480 1482 1484 1486 1489 1492 1495 1497 1501 1505 1508 1511 1516 1520 1524 1527 1531 1535 1539 1542 1545 1548 1551 1552 1553 1553 1554 1554 1555 1555 1556 1557 1556 1557 1558 1558 1558 1558 1559 1560 1560
1476 1479 1476 1471 1465 1464 1468 1476 1475 1479 1482 1484 1488 1491 1494 1497 1501 1504 1507 1510 1514 1519 1523 1526 1530 1534 1537 1541 1545 1547 1549 1551 1553 1553 1553 1554 1554 1555 1556 1556 1556 1557 1558 1558 1557 1557 1558 1558 1559
1480 1472 1469 1469 1462 1462 1465 1469 1469 1473 1477 1481 1485 1490 1493 1497 1500 1503 1507 1510 1514 1518 1522 1526 1529 1533 1536 1540 1543 1546 1549 1551 1552 1553 1553 1554 1555 1555 1555 1555 1556 1556 1557 1557 1557 1557 1558 1558 1559
1467 1468 1469 1464 1458 1461 1463 1464 1466 1469 1474 1478 1483 1487 1491 1495 1498 1502 1506 1509 1512 1516 1520 1524 1528 1531 1535 1538 1542 1545 1547 1550 1552 1552 1553 1554 1554 1555 1555 1555 1556 1556 1556 1556 1556 1556 1557 1559 1559
1465 1469 1467 1461 1455 1457 1460 1461 1461 1465 1470 1474 1479 1483 1488 1493 1496 1500 1503 1507 1511 1514 1518 1522 1526 1530 1533 1537 1541 1544 1547 1549 1551 1552 1553 1553 1554 1554 1555 1555 1556 1556 1556 1556 1556 1556 1557 1559 1559
1465 1467 1465 1463 1455 1452 1459 1467 1465 1464 1468 1472 1476 1480 1484 1489 1493 1497 1501 1505 1509 1512 1516 1519 1523 1527 1532 1536 1540 1543 1546 1548 1550 1551 1552 1553 1553 1554 1554 1555 1555 1556 1556 1556 1556 1556 1557 1558 1559
1467 1457 1457 1458 1463 1468 1468 1480 1467 1462 1464 1468 1472 1476 1480 1485 1490 1494 1498 1502 1506 1509 1513 1517 1521 1525 1530 1533 1537 1540 1543 1546 1548 1549 1550 1551 1552 1553 1553 1554 1554 1555 1556 1556 1556 1556 1557 1558 1559
1459 1453 1455 1459 1469 1480 1477 1486 1472 1460 1463 1464 1467 1472 1477 1483 1487 1491 1495 1500 1504 1507 1511 1515 1519 1524 1528 1532 1536 1539 1542 1545 1547 1548 1549 1550 1551 1552 1552 1553 1553 1554 1555 1555 1555 1555 1556 1557 1557
1452 1455 1456 1461 1478 1498 1484 1487 1475 1461 1460 1460 1463 1469 1475 1480 1485 1489 1493 1498 1502 1506 1509 1513 1517 1521 1526 1530 1533 1537 1540 1543 1545 1546 1547 1548 1549 1550 1551 1552 1552 1553 1554 1554 1554 1555 1556 1556 1556
1453 1466 1479 1486 1494 1493 1472 1478 1469 1453 1452 1455 1461 1467 1472 1478 1483 1487 1492 1495 1500 1504 1508 1511 1515 1519 1523 1527 1531 1534 1537 1540 1542 1544 1545 1546 1548 1548 1549 1550 1551 1552 1552 1553 1553 1554 1555 1555 1555
1456 1462 1481 1493 1489 1478 1471 1477 1463 1451 1452 1455 1460 1465 1470 1476 1481 1485 1490 1494 1498 1502 1506 1509 1513 1517 1521 1525 1528 1532 1535 1537 1539 1541 1543 1544 1546 1547 1547 1548 1549 1550 1551 1552 1552 1553 1554 1554 1555
1456 1456 1451 1464 1467 1475 1478 1476 1468 1455 1453 1455 1459 1464 1469 1474 1479 1484 1488 1492 1497 1500 1504 1507 1511 1514 1518 1522 1526 1529 1532 1534 1537 1538 1541 1543 1544 1545 1545 1546 1547 1548 1549 1550 1551 1552 1553 1554 1554
1446 1448 1454 1464 1480 1484 1480 1485 1485 1469 1459 1456 1458 1462 1467 1473 1477 1482 1486 1490 1495 1499 1502 1506 1509 1512 1516 1520 1523 1526 1529 1531 1534 1536 1538 1540 1542 1543 1543 1544 1545 1546 1547 1548 1549 1550 1551 1552 1552
1450 1454 1457 1458 1460 1476 1485 1487 1464 1462 1457 1456 1457 1460 1466 1471 1475 1480 1484 1488 1493 1497 1500 1504 1507 1510 1513 1517 1520 1523 1525 1528 1530 1532 1534 1536 1538 1539 1540 1541 1543 1544 1545 1546 1547 1548 1549 1550 1550
1448 1453 1458 1470 1469 1464 1470 1479 1457 1457 1455 1454 1456 1460 1465 1470 1473 1478 1482 1487 1491 1495 1498 1502 1505 1508 1510 1514 1517 1519 1522 1524 1526 1528 1530 1532 1534 1536 1537 1538 1540 1541 1542 1544 1544 1545 1547 1548 1548